Location: Ellierode
(51.8381°N, 10.0571°E)
Time: 07:36:00
(UTC+00:00)

Daily predictions for brighter satellites

Satellite Brightness Start Highest point End
(mag) Time Altitude Azimuth Time Altitude Azimuth Time Altitude Azimuth
COSMOS 2455 2.9 16:26:34 10° SSW 16:32:37 87° SE 16:38:42 10° NE
Cosmos 1818 3.7 16:28:20 10° SSW 16:33:42 66° SE 16:39:08 10° NE
USA 290 3.8 16:33:12 10° N 16:35:26 17° NE 16:37:39 10° E
Meteor 2-5 Rocket 4.2 16:31:05 10° SSW 16:36:34 63° WNW 16:42:05 10° N
Nadezhda 4 Rocket 4.3 16:31:13 10° SSE 16:37:06 47° E 16:42:59 10° NNE
Lacrosse 5 4.0 16:33:05 10° WNW 16:37:32 32° SW 16:41:58 10° SSE
SeaSat 1 2.7 16:33:09 10° NNE 16:38:06 76° NW 16:43:02 10° SW
Cosmos 158 Rocket 4.1 16:33:14 10° NNW 16:38:38 90° ENE 16:44:02 10° SSE
NOSS 3-1 (A) 4.0 16:34:47 10° NW 16:41:52 65° NE 16:50:13 10° ESE
Meteor 1-24 Rocket 4.0 16:36:41 10° SSW 16:41:58 70° WNW 16:47:19 10° N
AQUARIUS 4.2 16:40:15 10° SSE 16:44:45 87° WSW 16:49:18 10° NNW
Cosmos 2278 Rocket 3.7 16:41:39 10° SE 16:44:59 16° E 16:48:19 10° ENE
ERS-2 4.0 16:46:07 10° ENE 16:47:56 13° E 16:49:45 10° ESE
Aureole 3 Rocket 3.6 16:45:41 10° NNE 16:48:12 21° ENE 16:51:00 10° SE
ATLAS 2AS CENTAUR R/B 3.8 16:41:45 10° W 16:49:10 41° NNW 16:56:19 10° NE
Cosmos 2297 Rocket 4.4 16:47:40 10° NW 16:50:29 14° NNW 16:53:19 10° N
CZ-4B R/B 3.5 16:46:11 10° SSE 16:51:48 79° WSW 16:57:30 10° NNW
TELKOM 3 3.3 16:50:42 10° WSW 16:52:49 50° S 16:54:54 11° ESE
CORIOLIS 4.4 16:47:55 10° SSE 16:53:18 79° WSW 16:58:42 10° NNW
COSMO-SKYMED 1 3.4 16:50:28 10° NNE 16:54:21 30° E 16:58:11 10° SSE
Cosmos-2242 4.0 16:51:59 10° NNE 16:55:33 25° ENE 16:59:07 10° ESE
Landsat 5 3.4 16:52:22 10° NNE 16:56:16 79° WNW 17:00:05 10° SSW
Cosmos 1340 3.7 16:53:14 10° SSE 16:56:23 26° E 16:59:32 10° NE
Okean 1-7 Rocket 3.6 16:52:57 10° S 16:57:31 78° E 17:02:06 10° NNE
Cosmos 44 3.7 16:53:19 10° SSW 16:57:59 50° ESE 17:02:59 10° NE
CZ-2C R/B 3.4 16:56:14 10° SE 17:01:37 55° ENE 17:07:14 10° N
Iridium 4 Rocket 4.1 16:57:11 10° N 17:02:16 37° ENE 17:06:57 10° SE
Cosmos 1455 2.3 16:59:15 10° NNW 17:03:06 83° W 17:06:57 10° S
ISS -3.7 17:00:11 10° WSW 17:03:34 76° SSE 17:06:15 15° E
ARGOS 3.9 17:04:02 10° ESE 17:08:41 31° ENE 17:13:21 10° N
USA 234 3.6 17:03:07 12° ENE 17:09:07 59° N 17:15:33 10° W
Cosmos 2263 Rocket 3.8 17:05:13 10° WSW 17:10:08 29° NW 17:15:03 10° NNE
ADEOS Rocket 4.5 17:05:06 10° N 17:10:18 33° WNW 17:15:11 10° WSW
Cosmos 1328 4.4 17:07:00 10° SSE 17:10:39 36° E 17:14:19 10° NNE
Cosmos 1689 Rocket 4.3 17:12:02 11° ESE 17:12:02 11° ESE 17:12:23 10° SE
X-37B 2.5 17:09:16 10° WSW 17:11:53 24° S 17:14:31 10° SE
Cosmos 2026 Rocket 4.3 17:06:52 10° SSE 17:12:35 42° E 17:18:26 10° NNE
H-2A R/B 2.2 17:09:13 10° NNE 17:13:40 82° WNW 17:17:58 10° SSW
CZ-2C R/B 4.1 17:12:13 13° ENE 17:14:30 17° E 17:17:59 10° SE
Cosmos 1553 Rocket 4.4 17:09:32 10° N 17:15:33 40° ENE 17:21:28 10° SE
CZ-2D R/B 3.1 17:13:30 10° SSE 17:17:19 70° ENE 17:21:08 10° N
Cosmos 1602 Rocket 3.7 17:13:35 10° S 17:17:49 52° E 17:22:07 10° NNE
CZ-4 R/B 4.4 17:16:15 10° SSE 17:20:22 67° ENE 17:24:32 10° N
Cosmos 405 3.1 17:17:07 10° N 17:20:35 51° ENE 17:24:01 10° SSE
NOSS 2-1 (E) 3.3 17:18:54 10° SSW 17:22:04 44° SE 17:23:58 22° ENE
SJ 16-02 1.8 17:18:55 10° SW 17:23:16 61° WNW 17:27:39 10° NNE
YAOGAN 1 2.8 17:19:33 10° SE 17:23:41 46° ENE 17:27:50 10° N
CSL-04 DEB 4.3 17:23:19 10° NNE 17:27:30 77° ESE 17:31:32 10° SSW
Helios 1A Rocket 3.3 17:24:38 10° SE 17:28:31 40° ENE 17:32:24 10° N
Cosmos 1898 Rocket 3.5 17:26:15 10° SSW 17:31:27 67° ESE 17:36:39 10° NNE
Cosmos 1680 Rocket 4.5 17:28:01 10° NNW 17:33:05 50° WSW 17:38:06 10° S
Cosmos 1825 Rocket 4.2 17:29:21 10° SSE 17:33:17 33° E 17:36:47 12° NNE
Cosmos 1939 Rocket 3.7 17:29:17 10° S 17:33:17 55° W 17:37:15 10° NNW
Cosmos 1812 Rocket 3.5 17:29:22 10° NNW 17:33:47 87° W 17:38:08 10° S
CZ-4C R/B 3.7 17:29:24 10° WNW 17:34:36 30° N 17:39:09 16° NE
Okean O Rocket 3.4 17:30:48 10° SSW 17:34:52 35° W 17:38:57 10° NNW
Meteor 1-21 Rocket 4.3 17:31:27 10° SSW 17:36:59 81° WNW 17:42:38 10° NNE
CSL-04 Debris 4.3 17:34:06 10° SE 17:39:15 49° ENE 17:44:28 10° N
Cosmos 2195 Rocket 4.5 17:33:35 10° S 17:39:53 75° E 17:46:14 10° NNE
Cosmos 1048 Rocket 4.4 17:36:14 10° NNW 17:41:05 40° NE 17:44:13 20° ESE
Cosmos 1833 Rocket 2.6 17:35:30 10° NNW 17:41:11 87° ENE 17:46:48 10° SSE
Cosmos 2344 4.3 17:32:13 10° NW 17:41:13 88° SW 17:53:49 10° SE
S3M 4.3 17:35:43 10° N 17:41:30 42° ENE 17:47:16 10° SE
SKYMED 2 3.5 17:38:13 10° NNE 17:42:36 85° E 17:46:57 10° SSW
Okean-O 2.5 17:40:10 10° SSE 17:44:35 74° ENE 17:49:02 10° NNW
CZ-4B R/B 1.5 17:43:09 10° N 17:46:30 72° WNW 17:49:44 10° SSW
Cosmos 1428 Rocket 4.4 17:42:29 10° S 17:48:45 73° E 17:55:04 10° NNE
Cosmos 2098 Rocket 4.3 17:46:09 10° S 17:53:32 71° E 18:00:37 10° NNE
MOS 1 Rocket 3.0 17:50:11 10° NNE 17:54:30 90° W 17:58:49 10° SSW
COSMOS 2406 3.5 17:49:28 10° NW 17:55:15 69° WSW 18:00:57 10° SSE
Meteor 1-27 4.1 17:49:56 10° N 17:55:33 67° ENE 18:01:05 10° SSE
Cosmos 1937 Rocket 3.4 17:50:21 10° SSW 17:55:40 78° ESE 18:00:15 14° NNE
Cosmos 2082 Rocket 2.1 17:53:04 10° NNW 17:58:49 71° ENE 18:03:50 14° SE
Cosmos 1953 Rocket 4.0 17:55:01 10° SSE 17:58:46 38° E 17:58:46 38° E
Cosmos 1703 4.0 17:55:17 10° SSW 17:59:04 52° WNW 18:02:53 10° N
H-2A R/B 2.0 17:55:01 10° SSE 18:00:05 89° WSW 18:05:22 10° NNW
CZ-4 R/B 1.6 17:56:07 10° S 18:00:08 70° WSW 18:04:07 10° NNW
Cosmos 1844 Rocket 3.8 17:55:33 10° WSW 18:00:54 42° NW 18:06:17 10° NNE
Cosmos 1627 Rocket 4.5 17:56:25 10° S 18:02:39 87° W 18:09:01 10° N
Cosmos 389 Rocket 4.3 18:02:29 10° N 18:03:44 19° N 18:03:44 19° N
USA 290 3.4 18:06:58 10° NW 18:10:02 43° WSW 18:13:03 10° S
NOSS 2-1 (C) 3.3 18:07:54 10° WSW 18:11:11 60° NW 18:11:52 48° N
Cosmos 1092 Rocket 4.4 18:06:18 10° SSW 18:12:25 64° WNW 18:18:33 10° N
Cosmos 2227 Rocket 4.5 18:12:03 10° NNW 18:13:23 11° N 18:14:43 10° NNE
NOSS 2-2 (C) 4.3 18:09:03 10° NW 18:13:55 57° NE 18:15:57 39° E
Cosmos 2292 Rocket 4.3 18:09:23 10° SSE 18:12:41 35° SE 18:12:41 35° SE
Meteor 2-19 Rocket 4.4 18:09:38 10° S 18:15:48 87° ESE 18:22:01 10° NNE
NOSS 2-1 (D) 3.5 18:13:53 10° WSW 18:17:08 53° NW 18:17:38 48° N
ATLAS 5 CENTAUR R/B 3.5 18:14:21 10° NW 18:18:01 22° N 18:19:31 20° NNE
MetOp-A 4.3 18:17:37 44° E 18:18:26 48° ENE 18:23:34 10° N
COSMOS 2455 4.3 18:13:56 10° W 18:19:15 31° NNW 18:23:29 15° NNE
Cosmos 1346 Rocket 2.6 18:16:48 10° S 18:20:44 89° E 18:21:32 56° NNE
CSL-04 Rocket 3.6 18:16:15 10° SSE 18:21:43 88° WSW 18:27:17 10° NNW
ERS-2 2.5 18:20:15 30° N 18:21:52 63° WNW 18:25:27 10° SSW
deb Kosmos-1763 4.0 18:19:33 10° NNW 18:23:05 78° W 18:23:05 78° W
PSLV R/B 4.2 18:22:51 16° N 18:26:08 70° WNW 18:30:19 10° SSW
HJ-1C 3.9 18:27:14 54° SW 18:27:35 58° WSW 18:30:56 10° NNW
Cosmos 2278 Rocket 2.1 18:22:31 10° SSW 18:28:11 82° ESE 18:30:40 36° NE
Meteor 2-2 Rocket 4.3 18:23:12 10° N 18:29:08 63° ENE 18:31:48 33° SE
SL-08 RB Rocket 3.5 18:28:06 28° SSE 18:30:27 89° ENE 18:34:58 10° NNW
COSMO-SKYMED 1 4.1 18:26:34 10° N 18:30:33 36° WNW 18:34:31 10° SW
Cosmos-2242 4.3 18:29:14 10° NNW 18:33:16 41° W 18:37:20 10° SSW
Cosmos 1869 4.1 18:32:50 10° NNW 18:35:26 40° NNW 18:35:26 40° NNW
Cosmos 2297 Rocket 4.4 18:35:37 10° N 18:37:17 11° N 18:38:02 11° NNE
NOSS 2-2 (E) 4.2 18:32:15 10° NW 18:37:28 82° NE 18:39:25 48° SE
Cosmos 44 4.4 18:34:42 10° WSW 18:39:25 41° NW 18:41:26 29° NNE
ISS -2.3 18:36:59 10° W 18:39:13 38° W 18:39:13 38° W
ATLAS 2AS CENTAUR R/B 3.8 18:35:03 10° WNW 18:42:04 34° N 18:44:15 29° NE
Ariane Rocket 3.6 18:48:50 42° N 18:48:50 42° N 18:52:21 10° N
X-37B 3.5 18:46:07 10° SW 18:47:04 13° SW 18:47:04 13° SW
ARGOS 3.9 18:43:30 10° S 18:48:43 53° W 18:54:01 10° NNW
Cosmos 2266 Rocket 3.8 18:45:21 10° S 18:51:33 72° E 18:57:40 10° NNE
USA 234 3.3 18:50:28 53° ENE 18:51:47 64° NNE 18:58:15 10° WNW
MOS 1 4.3 18:53:17 64° NE 18:53:17 64° NE 18:58:30 10° NNW
Cosmos 2221 4.3 18:48:31 10° N 18:50:14 23° N 18:50:14 23° N
Cosmos 1809 Rocket 4.3 18:46:57 10° S 18:53:04 79° E 18:59:16 10° NNE
CZ-2C R/B 2.6 18:53:41 44° NNE 18:55:34 87° ESE 19:01:13 10° SSW
SJ 16-02 4.2 19:00:57 10° WNW 19:02:49 12° NW 19:04:41 10° NNW
USA 281 3.8 19:08:45 40° NNE 19:08:45 40° NNE 19:13:44 10° NNW
NOSS 2-2 (D) 4.4 19:11:29 10° NW 19:16:43 74° SW 19:16:48 74° SW
Cosmos 2315 Rocket 3.9 19:10:51 10° NNW 19:17:07 83° W 19:17:23 80° SW
Meteor 2-21 4.5 19:17:22 10° SSW 19:23:27 76° WNW 19:29:39 10° N
CZ-4C R/B 3.5 19:18:48 10° NW 19:24:20 38° NNE 19:24:20 38° NNE
Cosmos 909 Rocket 4.3 19:31:23 10° NW 19:36:59 70° NNW 19:36:59 70° NNW
Cosmos 2082 Rocket 4.2 19:37:53 10° NW 19:42:25 24° WSW 19:45:48 14° SSW
ATLAS 5 CENTAUR R/B 4.3 19:59:42 10° NW 20:01:03 17° NNW 20:01:03 17° NNW
Cosmos 2278 Rocket 4.0 20:08:12 10° W 20:12:34 27° NW 20:12:34 27° NW
ATLAS 2AS CENTAUR R/B 4.0 20:27:06 10° NW 20:31:41 36° NNW 20:31:41 36° NNW
